Time,TemperatureF,DewpointF,PressureIn,WindDirection,WindDirectionDegrees,WindSpeedMPH,WindSpeedGustMPH,Humidity,HourlyPrecipIn,Conditions,Clouds,dailyrainin,SoftwareType,DateUTC
2013-09-09 00:02:00,66.2,60.0,29.95,NNE,24,3.0,7.0,81,0.00,,,0.00,weatherlink.com 1.10,2013-09-09 07:02:00,
2013-09-09 00:17:00,65.6,60.0,29.95,NE,39,6.0,7.0,82,0.00,,,0.00,weatherlink.com 1.10,2013-09-09 07:17:00,
2013-09-09 00:32:00,64.3,59.0,29.95,NE,49,5.0,8.0,84,0.00,,,0.00,weatherlink.com 1.10,2013-09-09 07:32:00,
2013-09-09 00:47:00,63.6,59.0,29.95,NE,41,4.0,8.0,85,0.00,,,0.00,weatherlink.com 1.10,2013-09-09 07:47:00,
2013-09-09 01:02:00,63.0,59.0,29.95,NE,41,7.0,8.0,86,0.00,,,0.00,weatherlink.com 1.10,2013-09-09 08:02:00,
2013-09-09 01:17:00,62.7,59.0,29.95,NE,35,6.0,7.0,86,0.00,,,0.00,weatherlink.com 1.10,2013-09-09 08:17:00,
2013-09-09 01:33:00,61.8,58.0,29.95,NE,41,6.0,7.0,87,0.00,,,0.00,weatherlink.com 1.10,2013-09-09 08:33:00,
2013-09-09 01:48:00,61.4,58.0,29.95,ENE,61,3.0,8.0,88,0.00,,,0.00,weatherlink.com 1.10,2013-09-09 08:48:00,
2013-09-09 02:03:00,60.9,58.0,29.95,NE,37,6.0,7.0,89,0.00,,,0.00,weatherlink.com 1.10,2013-09-09 09:03:00,
2013-09-09 02:18:00,60.9,58.0,29.95,NE,43,6.0,9.0,89,0.00,,,0.00,weatherlink.com 1.10,2013-09-09 09:18:00,
2013-09-09 02:33:00,60.2,57.0,29.95,NNE,28,6.0,7.0,89,0.00,,,0.00,weatherlink.com 1.10,2013-09-09 09:33:00,
2013-09-09 02:48:00,60.0,57.0,29.95,NE,42,4.0,8.0,90,0.00,,,0.00,weatherlink.com 1.10,2013-09-09 09:48:00,
2013-09-09 03:03:00,59.8,57.0,29.96,NE,36,5.0,7.0,90,0.00,,,0.00,weatherlink.com 1.10,2013-09-09 10:03:00,
2013-09-09 03:18:00,59.5,57.0,29.95,NE,50,5.0,6.0,90,0.00,,,0.00,weatherlink.com 1.10,2013-09-09 10:18:00,
2013-09-09 03:33:00,59.3,56.0,29.96,NE,49,4.0,7.0,90,0.00,,,0.00,weatherlink.com 1.10,2013-09-09 10:33:00,
2013-09-09 03:48:00,59.1,56.0,29.95,NE,34,4.0,7.0,89,0.00,,,0.00,weatherlink.com 1.10,2013-09-09 10:48:00,
2013-09-09 04:03:00,58.4,56.0,29.95,NNE,23,5.0,7.0,91,0.00,,,0.00,weatherlink.com 1.10,2013-09-09 11:03:00,
2013-09-09 04:18:00,58.2,56.0,29.95,NNE,25,7.0,8.0,91,0.00,,,0.00,weatherlink.com 1.10,2013-09-09 11:18:00,
2013-09-09 04:33:00,58.1,56.0,29.95,NE,38,7.0,8.0,91,0.00,,,0.00,weatherlink.com 1.10,2013-09-09 11:33:00,
2013-09-09 04:48:00,58.0,55.0,29.95,ENE,75,4.0,9.0,91,0.00,,,0.00,weatherlink.com 1.10,2013-09-09 11:48:00,
2013-09-09 05:03:00,57.6,55.0,29.96,NE,37,3.0,8.0,91,0.00,,,0.00,weatherlink.com 1.10,2013-09-09 12:03:00,
2013-09-09 05:18:00,57.3,55.0,29.95,NE,41,6.0,9.0,92,0.00,,,0.00,weatherlink.com 1.10,2013-09-09 12:18:00,
2013-09-09 05:33:00,57.1,55.0,29.96,NE,47,6.0,10.0,92,0.00,,,0.00,weatherlink.com 1.10,2013-09-09 12:33:00,
2013-09-09 05:48:00,56.7,55.0,29.95,NNE,33,5.0,6.0,92,0.00,,,0.00,weatherlink.com 1.10,2013-09-09 12:48:00,
2013-09-09 06:03:00,56.6,54.0,29.96,NE,40,4.0,6.0,92,0.00,,,0.00,weatherlink.com 1.10,2013-09-09 13:03:00,
2013-09-09 06:18:00,56.4,54.0,29.96,ENE,59,7.0,8.0,92,0.00,,,0.00,weatherlink.com 1.10,2013-09-09 13:18:00,
2013-09-09 06:33:00,56.1,54.0,29.96,NE,52,2.0,8.0,92,0.00,,,0.00,weatherlink.com 1.10,2013-09-09 13:33:00,
2013-09-09 06:48:00,56.4,54.0,29.97,North,358,6.0,8.0,92,0.00,,,0.00,weatherlink.com 1.10,2013-09-09 13:48:00,
2013-09-09 07:03:00,56.4,54.0,29.97,NE,40,7.0,8.0,92,0.00,,,0.00,weatherlink.com 1.10,2013-09-09 14:03:00,
2013-09-09 07:18:00,56.2,54.0,29.98,NE,45,5.0,8.0,92,0.00,,,0.00,weatherlink.com 1.10,2013-09-09 14:18:00,
2013-09-09 07:33:00,56.9,55.0,29.98,ENE,59,3.0,7.0,92,0.00,,,0.00,weatherlink.com 1.10,2013-09-09 14:33:00,
2013-09-09 07:48:00,58.0,55.0,29.98,NE,54,6.0,7.0,90,0.00,,,0.00,weatherlink.com 1.10,2013-09-09 14:48:00,
2013-09-09 08:03:00,59.0,56.0,29.98,NE,44,4.0,7.0,88,0.00,,,0.00,weatherlink.com 1.10,2013-09-09 15:03:00,
2013-09-09 08:18:00,59.9,56.0,29.98,NE,44,3.0,7.0,87,0.00,,,0.00,weatherlink.com 1.10,2013-09-09 15:18:00,
2013-09-09 08:33:00,61.5,57.0,29.98,NE,40,3.0,5.0,85,0.00,,,0.00,weatherlink.com 1.10,2013-09-09 15:33:00,
2013-09-09 08:48:00,63.0,57.0,29.98,NE,44,0.0,3.0,81,0.00,,,0.00,weatherlink.com 1.10,2013-09-09 15:48:00,
2013-09-09 09:03:00,63.3,57.0,29.98,ENE,60,1.0,3.0,81,0.00,,,0.00,weatherlink.com 1.10,2013-09-09 16:03:00,
2013-09-09 09:18:00,65.0,58.0,29.98,NE,41,0.0,5.0,78,0.00,,,0.00,weatherlink.com 1.10,2013-09-09 16:18:00,
2013-09-09 09:34:00,69.4,61.0,29.98,SW,222,0.0,3.0,74,0.00,,,0.00,weatherlink.com 1.10,2013-09-09 16:34:00,
2013-09-09 09:49:00,70.4,62.0,29.98,WSW,241,2.0,5.0,74,0.00,,,0.00,weatherlink.com 1.10,2013-09-09 16:49:00,
2013-09-09 10:04:00,69.9,62.0,29.97,SW,221,4.0,7.0,76,0.00,,,0.00,weatherlink.com 1.10,2013-09-09 17:04:00,
2013-09-09 10:19:00,69.8,62.0,29.97,SW,223,3.0,6.0,75,0.00,,,0.00,weatherlink.com 1.10,2013-09-09 17:19:00,
2013-09-09 10:34:00,70.4,62.0,29.96,WSW,237,3.0,6.0,75,0.00,,,0.00,weatherlink.com 1.10,2013-09-09 17:34:00,
2013-09-09 10:49:00,72.8,63.0,29.96,SW,218,1.0,5.0,72,0.00,,,0.00,weatherlink.com 1.10,2013-09-09 17:49:00,
2013-09-09 11:04:00,75.0,62.0,29.95,SW,235,3.0,4.0,64,0.00,,,0.00,weatherlink.com 1.10,2013-09-09 18:04:00,
2013-09-09 11:19:00,75.9,63.0,29.95,SW,235,3.0,4.0,65,0.00,,,0.00,weatherlink.com 1.10,2013-09-09 18:19:00,
2013-09-09 11:34:00,77.2,63.0,29.95,SSW,209,4.0,7.0,62,0.00,,,0.00,weatherlink.com 1.10,2013-09-09 18:34:00,
2013-09-09 11:49:00,78.5,63.0,29.94,SW,228,4.0,9.0,60,0.00,,,0.00,weatherlink.com 1.10,2013-09-09 18:49:00,
2013-09-09 12:04:00,78.6,63.0,29.94,SW,224,3.0,10.0,60,0.00,,,0.00,weatherlink.com 1.10,2013-09-09 19:04:00,
2013-09-09 12:19:00,80.1,64.0,29.93,WNW,289,6.0,10.0,58,0.00,,,0.00,weatherlink.com 1.10,2013-09-09 19:19:00,
2013-09-09 12:34:00,81.1,63.0,29.92,West,273,6.0,10.0,55,0.00,,,0.00,weatherlink.com 1.10,2013-09-09 19:34:00,
2013-09-09 12:49:00,81.2,63.0,29.91,West,273,9.0,12.0,55,0.00,,,0.00,weatherlink.com 1.10,2013-09-09 19:49:00,
2013-09-09 13:04:00,81.0,64.0,29.91,NW,310,3.0,12.0,56,0.00,,,0.00,weatherlink.com 1.10,2013-09-09 20:04:00,
2013-09-09 13:19:00,81.7,63.0,29.90,West,268,6.0,13.0,54,0.00,,,0.00,weatherlink.com 1.10,2013-09-09 20:19:00,
2013-09-09 13:34:00,81.6,63.0,29.89,SW,234,6.0,14.0,53,0.00,,,0.00,weatherlink.com 1.10,2013-09-09 20:34:00,
2013-09-09 13:49:00,81.4,63.0,29.89,SW,216,5.0,14.0,53,0.00,,,0.00,weatherlink.com 1.10,2013-09-09 20:49:00,
2013-09-09 14:04:00,81.5,63.0,29.88,WSW,239,7.0,14.0,53,0.00,,,0.00,weatherlink.com 1.10,2013-09-09 21:04:00,
2013-09-09 14:19:00,81.7,63.0,29.87,West,280,11.0,15.0,54,0.00,,,0.00,weatherlink.com 1.10,2013-09-09 21:19:00,
2013-09-09 14:34:00,82.2,63.0,29.87,WSW,247,5.0,17.0,52,0.00,,,0.00,weatherlink.com 1.10,2013-09-09 21:34:00,
2013-09-09 14:49:00,81.4,62.0,29.86,WSW,251,5.0,18.0,52,0.00,,,0.00,weatherlink.com 1.10,2013-09-09 21:49:00,
2013-09-09 15:04:00,81.7,62.0,29.85,West,267,9.0,16.0,52,0.00,,,0.00,weatherlink.com 1.10,2013-09-09 22:04:00,
2013-09-09 15:19:00,82.7,62.0,29.85,SW,222,4.0,13.0,50,0.00,,,0.00,weatherlink.com 1.10,2013-09-09 22:19:00,
2013-09-09 15:34:00,82.0,63.0,29.84,WNW,285,6.0,16.0,52,0.00,,,0.00,weatherlink.com 1.10,2013-09-09 22:34:00,
2013-09-09 15:49:00,81.6,63.0,29.84,West,279,5.0,16.0,54,0.00,,,0.00,weatherlink.com 1.10,2013-09-09 22:49:00,
2013-09-09 16:04:00,81.7,63.0,29.84,SW,221,9.0,15.0,53,0.00,,,0.00,weatherlink.com 1.10,2013-09-09 23:04:00,
2013-09-09 16:19:00,81.4,63.0,29.84,West,266,6.0,17.0,53,0.00,,,0.00,weatherlink.com 1.10,2013-09-09 23:19:00,
2013-09-09 16:34:00,80.9,64.0,29.83,West,277,14.0,17.0,57,0.00,,,0.00,weatherlink.com 1.10,2013-09-09 23:34:00,
2013-09-09 16:49:00,80.3,65.0,29.83,WSW,250,5.0,15.0,59,0.00,,,0.00,weatherlink.com 1.10,2013-09-09 23:49:00,
2013-09-09 17:04:00,79.7,65.0,29.82,SW,230,4.0,10.0,61,0.00,,,0.00,weatherlink.com 1.10,2013-09-10 00:04:00,
2013-09-09 17:19:00,80.2,64.0,29.82,SW,226,2.0,11.0,58,0.00,,,0.00,weatherlink.com 1.10,2013-09-10 00:19:00,
2013-09-09 17:34:00,79.6,64.0,29.82,SW,232,4.0,10.0,59,0.00,,,0.00,weatherlink.com 1.10,2013-09-10 00:34:00,
2013-09-09 17:49:00,79.7,65.0,29.82,South,191,2.0,11.0,61,0.00,,,0.00,weatherlink.com 1.10,2013-09-10 00:49:00,
2013-09-09 18:04:00,79.5,64.0,29.83,SSW,209,4.0,11.0,59,0.00,,,0.00,weatherlink.com 1.10,2013-09-10 01:04:00,
2013-09-09 18:20:00,78.6,65.0,29.82,SW,223,6.0,12.0,63,0.00,,,0.00,weatherlink.com 1.10,2013-09-10 01:20:00,
2013-09-09 18:35:00,78.2,65.0,29.82,SW,232,4.0,11.0,63,0.00,,,0.00,weatherlink.com 1.10,2013-09-10 01:35:00,
2013-09-09 18:50:00,78.4,64.0,29.82,WNW,284,7.0,15.0,61,0.00,,,0.00,weatherlink.com 1.10,2013-09-10 01:50:00,
2013-09-09 19:05:00,78.3,64.0,29.83,WSW,251,2.0,14.0,61,0.00,,,0.00,weatherlink.com 1.10,2013-09-10 02:05:00,
2013-09-09 19:20:00,78.0,64.0,29.83,WSW,244,6.0,14.0,62,0.00,,,0.00,weatherlink.com 1.10,2013-09-10 02:20:00,
2013-09-09 19:35:00,77.9,64.0,29.83,SW,231,3.0,13.0,63,0.00,,,0.00,weatherlink.com 1.10,2013-09-10 02:35:00,
2013-09-09 19:50:00,76.9,64.0,29.84,WNW,282,5.0,9.0,65,0.00,,,0.00,weatherlink.com 1.10,2013-09-10 02:50:00,
2013-09-09 20:05:00,76.4,64.0,29.84,SW,220,2.0,14.0,66,0.00,,,0.00,weatherlink.com 1.10,2013-09-10 03:05:00,
2013-09-09 20:20:00,75.4,64.0,29.84,SW,216,4.0,12.0,68,0.00,,,0.00,weatherlink.com 1.10,2013-09-10 03:20:00,
2013-09-09 20:35:00,74.5,64.0,29.85,WNW,290,2.0,10.0,70,0.00,,,0.00,weatherlink.com 1.10,2013-09-10 03:35:00,
2013-09-09 20:50:00,72.9,64.0,29.86,WSW,249,4.0,7.0,73,0.00,,,0.00,weatherlink.com 1.10,2013-09-10 03:50:00,
2013-09-09 21:05:00,72.3,64.0,29.86,West,266,3.0,14.0,74,0.00,,,0.00,weatherlink.com 1.10,2013-09-10 04:05:00,
2013-09-09 21:20:00,71.5,63.0,29.86,North,356,2.0,9.0,75,0.00,,,0.00,weatherlink.com 1.10,2013-09-10 04:20:00,
2013-09-09 21:35:00,71.3,63.0,29.86,NW,312,1.0,8.0,76,0.00,,,0.00,weatherlink.com 1.10,2013-09-10 04:35:00,
2013-09-09 21:50:00,71.1,63.0,29.86,NNE,13,1.0,6.0,76,0.00,,,0.00,weatherlink.com 1.10,2013-09-10 04:50:00,
2013-09-09 22:05:00,70.0,63.0,29.86,WNW,300,1.0,8.0,78,0.00,,,0.00,weatherlink.com 1.10,2013-09-10 05:05:00,
2013-09-09 22:20:00,70.0,63.0,29.87,North,358,3.0,5.0,78,0.00,,,0.00,weatherlink.com 1.10,2013-09-10 05:20:00,
2013-09-09 22:35:00,70.6,63.0,29.87,West,275,3.0,6.0,77,0.00,,,0.00,weatherlink.com 1.10,2013-09-10 05:35:00,
2013-09-09 22:50:00,68.8,62.0,29.87,NNW,342,3.0,5.0,80,0.00,,,0.00,weatherlink.com 1.10,2013-09-10 05:50:00,
2013-09-09 23:05:00,68.1,62.0,29.87,North,357,5.0,5.0,82,0.00,,,0.00,weatherlink.com 1.10,2013-09-10 06:05:00,
2013-09-09 23:20:00,67.9,63.0,29.88,NE,38,3.0,6.0,83,0.00,,,0.00,weatherlink.com 1.10,2013-09-10 06:20:00,
2013-09-09 23:35:00,67.2,62.0,29.88,NE,48,4.0,8.0,84,0.00,,,0.00,weatherlink.com 1.10,2013-09-10 06:35:00,
2013-09-09 23:50:00,66.7,62.0,29.88,NE,43,3.0,7.0,85,0.00,,,0.00,weatherlink.com 1.10,2013-09-10 06:50:00,